"Pseudo-MPEC" for ZTAAD63

Created 2018 Oct 18 0:18:45 UT using Find_Orb

Click here for an explanation of pseudo-MPECs

 
 Astrometry: 
     ZTAAD63  C2018 10 05.29596 00 32 42.24 +14 26 09.6          21.5 GVNEOCPG96
     ZTAAD63  C2018 10 05.30159 00 32 39.73 +14 25 57.8          21.5 GVNEOCPG96
     ZTAAD63  C2018 10 05.30722 00 32 37.25 +14 25 45.0          21.6 GVNEOCPG96
     ZTAAD63  C2018 10 05.31284 00 32 34.74 +14 25 32.6          21.8 GVNEOCPG96
     ZTAAD63  C2018 10 05.39259 00 31 59.46 +14 22 36.6          22.0 GVNEOCPG96
     ZTAAD63  C2018 10 05.39421 00 31 58.74 +14 22 32.9          21.7 GVNEOCPG96
     ZTAAD63  C2018 10 05.39583 00 31 58.05 +14 22 29.2          21.9 GVNEOCPG96
     ZTAAD63  C2018 10 05.39745 00 31 57.33 +14 22 25.8          21.9 GVNEOCPG96
     ZTAAD63 KC2018 10 06f,AstrometrykffPgKA]@7qrhv$n^ml2gRFQnLFQ_g8PSX@^!W$8H21
     ZTAAD63 KC2018 10 06)PYTOGAPhsvtAH@raad7:Cr4'sF_2O5l.CAjV2i,,0/']ph!b)DZH21
     ZTAAD63 KC2018 10 06q%-=dsFSfUva5@XlSGR_2afoXUpt8oT/t;M95MlU(CpcNdvV.XvWH21
     ZTAAD63 KC2018 10 09jQ'dCPrSK3ZH-dWj-NbqgRvC`TtqDKS.I)ZV.njLpQ7NADV]oXc7H21
     ZTAAD63 KC2018 10 09e`4Kn.w94P!]Y\9h*)nZ+(V*^9SqWj\q%aeg8X!hZ^pQjZ^oD]%(H21
     ZTAAD63 KC2018 10 09ur[lOL(+D@r\xN%22'(dK(xc]G-tL5oEKNQDO6Bo.%G\*ZIebg6EH21
     ZTAAD63 KC2018 10 09?y(gamPKlUgA,fJB.redacted;s+g@Aqj6c1L.QjrAF?KK2'9S3%L01
     ZTAAD63 KC2018 10 09#0gv;Up\qM=48iBiIf;Df[p7mw*d/Wtw-5R#LXtSO.k?*5BJPg6eL01
     ZTAAD63  C2018 10 107(X42XRv5'MBYFh7tuA)g`g\8,#(r:0*(wc[sRbFOX%O!p#v7,=QV06
     ZTAAD63  C2018 10 10N?hfLknx,Y(4VEI)x1O'D.0y$3upt9!H2i48[\6go?UKd%Tj]w4kV06
     ZTAAD63  C2018 10 10-3Juc@oVAqhe+'FAqg7jB/GK%8.#TdnX_WR.3M%U8d6^`.KQxnm-V06
     ZTAAD63  C2018 10 10or3-[jh5.\GH9yVL6[eTr#:ZOk2w_@l1-TlQB[_$(-q'dQTT2s.^V06
     ZTAAD63 KC2018 10 10vIr%:+S%I?2#1cymH#u0N#t%1(k^6*Z9seeV:TaafeRBl;A_x4NLK51
     ZTAAD63 KC2018 10 107+*Q:t5O4kiBS+]sKLm0g5o_3)g:uiyQMPlHeA\W0$doa]@%/4iQK51
     ZTAAD63 KC2018 10 10#^j6BX*qG*uZHwiY1S7u#R2C2v1!Mh:qY\Oc-Qm/L(2#\U6m/MBfK51
     ZTAAD63 KC2018 10 10%Tc7*umW=-OvCX`P/-95iK8K[NDU:0[osLyH?1fL:boLHy\0mqyrK51
     ZTAAD63 |C2018 10 15dKS8Cwn^-)-[/`)OKoUe2%l4XNDKyDxcI+Vl)$Pja]%pD/EoXU5j807
     ZTAAD63 |C2018 10 15Z[Yl/#b!pJ!\q^:GO!_.q]=q,Put`VSR?WJ(2t.]vD.Z^Uc_nr0Q807
     ZTAAD63 |C2018 10 15i[8?a3:!jG.c$2k7-SN)w\=5k[N`-9kPt)J\q];ek$D$p5eNEOCP807

Station data:
(807) Cerro Tololo Observatory, La Serena  (S30.169136 W70.805900)  Chile.
   1.5-m Ritchey-Chrétien.
(G96) Mt. Lemmon Survey  (N32.442754 W110.788720)  US/Arizona.  Observers B.
   M. Africano, E. J. Christensen, D. C. Fuls, A. R. Gibbs, A. D. Grauer, J.
   A. Johnson, R. A. Kowalski, S. M. Larson, G. J. Leonard, R. L. Seaman, F.
   C. Shelly. 1.5-m reflector + 10K CCD.
(H21) Astronomical Research Observatory, Westfield  (N39.483057 W87.968270)
   US/Illinois. 0.76-m f/3.0 astrograph + CCD.
(K51) Osservatorio del Celado, Castello Tesino  (N46.029412 E11.657900)
   Italy.
(L01) Višnjan Observatory, Tičan  (N45.290900 E13.749300)  Croatia.  Observer
   K. Korlević. 1.0-m f/2.9 reflector + CCD.
(V06) Catalina Sky Survey-Kuiper  (N32.416847 W110.732550)  US/Arizona.
   Observers B. M. Africano, E. J. Christensen, D. C. Fuls, A. R. Gibbs, A.
   D. Grauer, J. A. Johnson, R. A. Kowalski, S. M. Larson, G. J. Leonard, R.
   L. Seaman, F. C. Shelly. 1.55-m reflector + CCD.

Orbital elements:  ZTAAD63
   Perihelion 2018 Dec 29.111244 +/- 1.34 TT =  2:40:11 (JD 2458481.611244)
Epoch 2018 Oct 15.0 TT = JDT 2458406.5   Earth MOID: 0.7424   Ju: 0.4276
M 356.92198 +/- 0.45                (J2000 ecliptic)          AutoNEOCP
n   0.04097937 +/- 0.00471          Peri.   78.29365 +/- 0.59
a   8.33218934 +/- 0.638            Node    45.52608 +/- 0.09
e   0.7929233 +/- 0.0149            Incl.  170.92039 +/- 0.012
P  24.05                   H 20.0   G  0.15   U  9.1  
q 1.72540185 +/- 0.00653    Q 14.9389768 +/- 0.995
From 27 observations 2018 Oct. 5-15; mean residual 0".21
Residuals in arcseconds: 
181005 G96  .15+  .51-    181006 H21  .11-  .19+    181010 V06  .20+  .14-    
181005 G96  .11-  .09+    181006 H21  .17+  .45+    181010 V06  .18+  .27-    
181005 G96  .07+  .30-    181009 H21  .06-  .14+    181010 K51  .03+  .25-    
181005 G96  .25-  .31-    181009 H21  .16+  .06-    181010 K51  .20+  .17-    
181005 G96  .05-  .04+    181009 H21  .04+  .17+    181010 K51  .36-  .08-    
181005 G96  .10-  .07-    181009 L01  .17-  .23+    181010 K51  .04-  .12+    
181005 G96  .28+  .17-    181009 L01  .29-  .28+    181015 807  .15-  .29+    
181005 G96  .23+  .02+    181010 V06  .23+  .31-    181015 807  .04-  .02+    
181006 H21  .28-  .27+    181010 V06  .14+  .28-    181015 807  .16+  .15-    

Ephemerides (geocentric):
Date (UTC) HH   RA              Dec         delta   r     elong  mag " sig PA
---- -- -- --  -------------   -----------  ------ ------ -----  --- ---- ---
2018 10 18 00  23 03 20.641   +05 38 54.54  1.0203 1.9152 143.5 22.4  .61 115
2018 10 18 01  23 03 04.963   +05 37 10.37  1.0208 1.9150 143.4 22.4  .62 114
2018 10 18 02  23 02 49.303   +05 35 26.27  1.0212 1.9148 143.2 22.4  .63 114
2018 10 18 03  23 02 33.662   +05 33 42.24  1.0216 1.9146 143.1 22.4  .64 114
2018 10 18 04  23 02 18.039   +05 31 58.28  1.0221 1.9144 143.0 22.4  .65 113
2018 10 18 05  23 02 02.434   +05 30 14.39  1.0225 1.9142 142.9 22.4  .66 113
2018 10 18 06  23 01 46.847   +05 28 30.57  1.0229 1.9140 142.8 22.4  .67 113
2018 10 18 07  23 01 31.279   +05 26 46.82  1.0234 1.9137 142.7 22.4  .68 113
2018 10 18 08  23 01 15.729   +05 25 03.14  1.0238 1.9135 142.6 22.4  .69 112
2018 10 18 09  23 01 00.197   +05 23 19.54  1.0242 1.9133 142.5 22.4  .70 112
2018 10 18 10  23 00 44.684   +05 21 36.01  1.0247 1.9131 142.4 22.4  .71 112
2018 10 18 11  23 00 29.189   +05 19 52.55  1.0251 1.9129 142.3 22.4  .72 111
2018 10 18 12  23 00 13.713   +05 18 09.16  1.0256 1.9127 142.2 22.4  .73 111
2018 10 18 13  22 59 58.255   +05 16 25.85  1.0260 1.9125 142.1 22.4  .74 111
2018 10 18 14  22 59 42.816   +05 14 42.62  1.0264 1.9123 142.0 22.4  .75 111
2018 10 18 15  22 59 27.395   +05 12 59.45  1.0269 1.9121 141.9 22.4  .76 110
2018 10 18 16  22 59 11.993   +05 11 16.37  1.0273 1.9119 141.7 22.4  .77 110
2018 10 18 17  22 58 56.610   +05 09 33.36  1.0278 1.9117 141.6 22.4  .79 110
2018 10 18 18  22 58 41.245   +05 07 50.43  1.0283 1.9115 141.5 22.4  .80 110
2018 10 18 19  22 58 25.899   +05 06 07.58  1.0287 1.9113 141.4 22.4  .81 110
2018 10 18 20  22 58 10.571   +05 04 24.80  1.0292 1.9111 141.3 22.4  .82 109
2018 10 18 21  22 57 55.262   +05 02 42.10  1.0296 1.9109 141.2 22.4  .83 109
2018 10 18 22  22 57 39.972   +05 00 59.48  1.0301 1.9107 141.1 22.4  .84 109
2018 10 18 23  22 57 24.701   +04 59 16.94  1.0306 1.9105 141.0 22.4  .85 109
2018 10 19 00  22 57 09.449   +04 57 34.48  1.0310 1.9103 140.9 22.4  .87 108
2018 10 19 01  22 56 54.215   +04 55 52.10  1.0315 1.9101 140.8 22.4  .88 108
2018 10 19 02  22 56 39.000   +04 54 09.80  1.0320 1.9099 140.7 22.4  .89 108
2018 10 19 03  22 56 23.804   +04 52 27.58  1.0324 1.9097 140.6 22.4  .90 108
2018 10 19 04  22 56 08.627   +04 50 45.44  1.0329 1.9095 140.5 22.4  .91 107
2018 10 19 05  22 55 53.469   +04 49 03.39  1.0334 1.9093 140.4 22.4  .93 107
2018 10 19 06  22 55 38.330   +04 47 21.42  1.0339 1.9091 140.3 22.4  .94 107
2018 10 19 07  22 55 23.210   +04 45 39.53  1.0343 1.9089 140.1 22.4  .95 107
2018 10 19 08  22 55 08.108   +04 43 57.72  1.0348 1.9087 140.0 22.4  .96 107
2018 10 19 09  22 54 53.026   +04 42 16.00  1.0353 1.9085 139.9 22.4  .98 106
2018 10 19 10  22 54 37.963   +04 40 34.36  1.0358 1.9083 139.8 22.4  .99 106
2018 10 19 11  22 54 22.919   +04 38 52.81  1.0363 1.9081 139.7 22.4  1.0 106
2018 10 19 12  22 54 07.894   +04 37 11.34  1.0367 1.9079 139.6 22.4  1.0 106
2018 10 19 13  22 53 52.888   +04 35 29.96  1.0372 1.9077 139.5 22.4  1.0 106
2018 10 19 14  22 53 37.901   +04 33 48.67  1.0377 1.9075 139.4 22.4  1.0 105
2018 10 19 15  22 53 22.933   +04 32 07.46  1.0382 1.9073 139.3 22.4  1.1 105
2018 10 19 16  22 53 07.985   +04 30 26.33  1.0387 1.9071 139.2 22.4  1.1 105
2018 10 19 17  22 52 53.055   +04 28 45.30  1.0392 1.9069 139.1 22.5  1.1 105
2018 10 19 18  22 52 38.145   +04 27 04.35  1.0397 1.9067 139.0 22.5  1.1 105
2018 10 19 19  22 52 23.254   +04 25 23.50  1.0402 1.9065 138.9 22.5  1.1 105
2018 10 19 20  22 52 08.382   +04 23 42.73  1.0407 1.9063 138.8 22.5  1.1 104
2018 10 19 21  22 51 53.530   +04 22 02.05  1.0412 1.9061 138.7 22.5  1.1 104
2018 10 19 22  22 51 38.697   +04 20 21.46  1.0417 1.9059 138.6 22.5  1.1 104
2018 10 19 23  22 51 23.883   +04 18 40.95  1.0422 1.9057 138.5 22.5  1.2 104